KKS-1 (KISEKI)

Last updated on Sat Nov 01 2025 00:03:08 GMT+0000 (Coordinated Universal Time)

1 33499U 09002H 25304.62008926 .00002632 00000+0 33706-3 0 9990 2 33499 98.1136 218.6170 0007083 320.8641 39.2058 14.82186271902328
UTC large
Height (km)
Speed (km/s)
/
Latitude / Longitude
Inclination (degrees)
Orbital Period (minutes)
Azimuth
Elevation
Range (km)
Doppler Factor

Next 0 passes for location: London (51.5072 / 0.1276)

Sorry there are no passes over London.